[[{"header":{"parameterUnit":"m.s-1","parameterCategory":2,"la1":30.2991,"la2":30.254,"lo1":-89.0895,"lo2":-89.0444,"dy":0.0017,"dx":0.0017,"nx":28,"ny":28,"refTime":"2025-04-15T09:00:00:Z","depth":"0","parameterNumber":2,"parameterNumberName":"U-component_of_CURRENTS"},"data":[0,0,0,0,0,0,0,0,0,0,0,0,0,0,0,0,0,0,0,0,0,0,0,0,0,0,0,0,0,0,0,0,0,0,0,0,0,0,0,0,0,0,0,0,0,0,0,0,0,0,0,0,0,0,0,0,0,0,-0.3383,-0.3384,0,-0.3466,-0.3466,-0.3467,-0.3453,-0.3452,-0.345,-0.3449,-0.3509,-0.3512,-0.3514,0,0,0,0,0,0,0,0,0,0,0,0,0,-0.3234,-0.3236,-0.3383,-0.3384,-0.3386,-0.3465,-0.3466,-0.3467,-0.3453,-0.3452,-0.345,-0.3449,-0.3508,-0.3511,-0.3515,0,0,0,0,0,0,0,0,0,0,0,0,0,-0.3303,-0.3237,-0.3383,-0.339,-0.3392,-0.3465,-0.3466,-0.3467,-0.3453,-0.3452,-0.345,-0.3448,-0.3507,-0.3511,-0.3515,-0.3576,0,0,-0.3527,-0.3529,0,0,0,0,0,0,0,0,-0.3299,-0.3308,-0.3388,-0.339,-0.3392,-0.3449,-0.3436,-0.3503,-0.3454,-0.3427,-0.3449,-0.3447,-0.349,-0.3496,-0.3511,-0.3578,-0.3581,-0.3528,-0.353,-0.3532,-0.3533,0,0,0,0,0,0,0,-0.3294,-0.3304,-0.3413,-0.3389,-0.3392,-0.3397,-0.3404,-0.3448,-0.3465,-0.3429,-0.3429,-0.3443,-0.349,-0.3507,-0.3513,-0.3582,-0.3528,-0.3531,-0.3534,-0.3535,-0.3627,-0.3628,0,0,0,0,0,0,-0.3291,-0.33,-0.341,-0.3416,-0.3343,-0.3401,-0.3409,-0.3431,-0.3465,-0.347,-0.3445,-0.3442,-0.3501,-0.3508,-0.3515,-0.3539,-0.3532,-0.3536,-0.3538,-0.3627,-0.3627,-0.3628,0,0,0,0,0,0,-0.3288,-0.33,-0.3407,-0.3361,-0.3375,-0.3405,-0.343,-0.3433,-0.3446,-0.3478,-0.3481,-0.3453,-0.35,-0.3509,-0.354,-0.3543,-0.3537,-0.3541,-0.3627,-0.3627,-0.3627,-0.3619,0,0,0,0,0,0,-0.3283,-0.3299,-0.331,-0.3361,-0.3378,-0.3446,-0.3432,-0.3436,-0.3459,-0.3456,-0.3487,-0.349,-0.35,-0.3533,-0.3544,-0.3548,-0.3544,-0.3627,-0.3627,-0.3627,-0.362,-0.3619,-0.3619,0,0,0,0,0,-0.3278,-0.3302,-0.331,-0.3323,-0.3394,-0.3447,-0.3456,-0.3469,-0.3461,-0.3472,-0.3482,-0.3489,-0.354,-0.3538,-0.3549,-0.3555,-0.3627,-0.3627,-0.3627,-0.362,-0.3619,-0.3619,0,0,0,0,0,0,-0.3241,-0.3305,-0.3314,-0.3356,-0.3396,-0.3445,-0.346,-0.3474,-0.3495,-0.3487,-0.3505,-0.3511,-0.353,-0.355,-0.3547,-0.3579,-0.358,-0.3582,-0.357,-0.357,-0.3569,-0.3562,-0.3548,0,0,0,0,0,-0.3241,-0.327,-0.3332,-0.3359,-0.3383,-0.3423,-0.3445,-0.346,-0.3489,-0.3496,-0.3514,-0.353,-0.3545,-0.3561,-0.3579,-0.3618,-0.3617,-0.3623,-0.3623,-0.3622,-0.3623,-0.3608,-0.3606,-0.3628,-0.3628,-0.3628,0,0,-0.3232,-0.3271,-0.3286,-0.3353,-0.3382,-0.3427,-0.343,-0.3469,-0.3494,-0.3502,-0.3529,-0.3533,-0.3552,-0.3574,-0.3586,-0.3592,-0.3618,-0.3622,-0.3622,-0.3623,-0.3608,-0.3605,-0.3603,-0.3628,-0.3628,-0.3628,0,0,-0.3236,-0.3266,-0.3297,-0.3338,-0.3395,-0.3425,-0.3438,-0.3491,-0.3498,-0.354,-0.353,-0.3533,-0.3584,-0.3579,-0.3589,-0.3604,-0.361,-0.3611,-0.3615,-0.3601,-0.3599,-0.3597,-0.3603,-0.3602,-0.3618,-0.3618,-0.3618,0,-0.3221,-0.3271,-0.3312,-0.3359,-0.3388,-0.3425,-0.3464,-0.3493,-0.3542,-0.3548,-0.3545,-0.3574,-0.3583,-0.3596,-0.3588,-0.3602,-0.3603,-0.3616,-0.3599,-0.3597,-0.3595,-0.3602,-0.3601,-0.3617,-0.3617,-0.3617,-0.3617,0,-0.3257,-0.3297,-0.3318,-0.3385,-0.3423,-0.346,-0.3512,-0.3536,-0.3549,-0.3571,-0.3582,-0.3587,-0.3599,-0.3599,-0.3602,-0.3593,-0.3601,-0.3593,-0.3599,-0.3593,-0.3601,-0.3599,-0.3617,-0.3617,-0.3617,-0.3617,0,0,-0.3212,-0.3322,-0.3324,-0.3355,-0.3437,-0.3468,-0.3514,-0.3558,-0.3578,-0.3601,-0.3618,-0.3618,-0.3606,-0.3614,-0.3608,-0.3596,-0.3579,-0.3591,-0.359,-0.3595,-0.3563,-0.3483,-0.3474,-0.3567,-0.3567,-0.3566,-0.3578,0,-0.3218,-0.3294,-0.3352,-0.3407,-0.3447,-0.3499,-0.3537,-0.3579,-0.3608,-0.3635,-0.3627,-0.3641,-0.3619,-0.3618,-0.36,-0.359,-0.3574,-0.3578,-0.3571,-0.3571,-0.3497,-0.3468,-0.3328,-0.3318,-0.3577,-0.3576,-0.3576,0,-0.3224,-0.3272,-0.3331,-0.3412,-0.3433,-0.3469,-0.352,-0.3566,-0.3616,-0.3639,-0.365,-0.3658,-0.365,-0.3627,-0.3599,-0.3605,-0.3577,-0.3564,-0.3564,-0.3489,-0.3487,-0.3364,-0.3306,-0.3279,-0.3574,-0.3574,-0.3575,0,-0.3147,-0.3249,-0.3284,-0.3316,-0.3419,-0.3437,-0.3483,-0.3547,-0.3581,-0.3635,-0.3663,-0.3666,-0.3665,-0.3635,-0.3608,-0.3604,-0.3581,-0.3573,-0.3477,-0.3473,-0.3351,-0.3335,-0.3257,-0.3534,-0.3534,-0.3534,-0.3534,0,-0.312,-0.3143,-0.3247,-0.3263,-0.3292,-0.3385,-0.3419,-0.3472,-0.3549,-0.3582,-0.3643,-0.3665,-0.3662,-0.3657,-0.3623,-0.3546,-0.3589,-0.3467,-0.3458,-0.3345,-0.333,-0.3298,-0.3325,-0.3534,-0.3534,-0.3534,-0.3534,0,-0.3021,-0.31,-0.3137,-0.3232,-0.3256,-0.3268,-0.3371,-0.3396,-0.3495,-0.3543,-0.3561,-0.3654,-0.365,-0.3648,-0.3614,-0.3552,-0.3434,-0.346,-0.3339,-0.3312,-0.3167,-0.3199,-0.3117,-0.3027,-0.3348,-0.3346,-0.3344,0,-0.2975,-0.2986,-0.3075,-0.3084,-0.3119,-0.3167,-0.3194,-0.3327,-0.3369,-0.3524,-0.3531,-0.3587,-0.3587,-0.3543,-0.3457,-0.3382,-0.3359,-0.3204,-0.3145,-0.3124,-0.3155,-0.3172,-0.3102,-0.2999,-0.2994,-0.2991,-0.2988,0,-0.2862,-0.2893,-0.2919,-0.2944,-0.297,-0.3014,-0.3076,-0.3115,-0.3271,-0.333,-0.3413,-0.3442,-0.3442,-0.3319,-0.324,-0.3167,-0.3112,-0.3123,-0.3121,-0.288,-0.2874,-0.2793,-0.3062,-0.2955,-0.2958,-0.2961,-0.2962,-0.2964,-0.2749,-0.2734,-0.2767,-0.2772,-0.2805,-0.2825,-0.2808,-0.2913,-0.2966,-0.3038,-0.3194,-0.3208,-0.3176,-0.3045,-0.2977,-0.2811,-0.2879,-0.2713,-0.2761,-0.2787,-0.2657,-0.286,-0.2726,-0.2728,-0.273,-0.2731,-0.2732,0,-0.2592,-0.2591,-0.2592,-0.2596,-0.2559,-0.2639,-0.2687,-0.2654,-0.2656,-0.2796,-0.2842,-0.2887,-0.2759,-0.2748,-0.2616,-0.2492,-0.2418,-0.2433,-0.2425,-0.2374,-0.2555,-0.2494,-0.2278,-0.2278,-0.2278,-0.2278,-0.2278,-0.2278,-0.251,-0.2448,-0.2449,-0.2334,-0.2332,-0.2234,-0.2222,-0.2214,-0.2272,-0.2319,-0.2416,-0.2558,-0.258,-0.2681,-0.2498,-0.236,-0.2291,-0.2215,-0.2254,-0.2403,-0.2433,-0.2462,-0.2408,-0.2177,-0.2177,-0.1968,-0.1966,-0.1965]},{"header":{"parameterUnit":"m.s-1","parameterCategory":2,"la1":30.2991,"la2":30.254,"lo1":-89.0895,"lo2":-89.0444,"dy":0.0017,"dx":0.0017,"nx":28,"ny":28,"refTime":"2025-04-15T09:00:00:Z","depth":"0","parameterNumber":3,"parameterNumberName":"V-component_of_CURRENTS"},"data":[0,0,0,0,0,0,0,0,0,0,0,0,0,0,0,0,0,0,0,0,0,0,0,0,0,0,0,0,0,0,0,0,0,0,0,0,0,0,0,0,0,0,0,0,0,0,0,0,0,0,0,0,0,0,0,0,0,0,-0.0455,-0.0454,0,-0.0361,-0.036,-0.0359,-0.0275,-0.0275,-0.0274,-0.0273,-0.0082,-0.0078,-0.0073,0,0,0,0,0,0,0,0,0,0,0,0,0,-0.0488,-0.0488,-0.0455,-0.0454,-0.0453,-0.0361,-0.036,-0.0358,-0.0276,-0.0275,-0.0274,-0.0273,-0.0083,-0.0078,-0.0073,0,0,0,0,0,0,0,0,0,0,0,0,0,-0.044,-0.0488,-0.0455,-0.0402,-0.0396,-0.0362,-0.036,-0.0358,-0.0276,-0.0275,-0.0273,-0.0272,-0.0085,-0.0079,-0.0072,-0.0056,0,0,-0.0052,-0.0049,0,0,0,0,0,0,0,0,-0.0443,-0.0439,-0.0411,-0.0406,-0.0399,-0.033,-0.0301,-0.0253,-0.0276,-0.032,-0.0273,-0.0272,-0.0158,-0.0145,-0.0129,-0.0047,-0.0039,-0.0052,-0.0048,-0.0045,-0.0043,0,0,0,0,0,0,0,-0.0447,-0.0442,-0.0416,-0.041,-0.0403,-0.0357,-0.035,-0.0292,-0.0244,-0.0316,-0.031,-0.0303,-0.0154,-0.0136,-0.0124,-0.0036,-0.0052,-0.0046,-0.0042,-0.0039,0.0082,0.0082,0,0,0,0,0,0,-0.0467,-0.0446,-0.0419,-0.0413,-0.0421,-0.0358,-0.0349,-0.0352,-0.0246,-0.023,-0.0304,-0.0299,-0.0148,-0.0132,-0.0117,-0.0078,-0.0045,-0.0039,-0.0035,0.0083,0.0082,0.0082,0,0,0,0,0,0,-0.0469,-0.0466,-0.0423,-0.0428,-0.0419,-0.036,-0.0363,-0.0351,-0.033,-0.0239,-0.022,-0.0295,-0.0146,-0.0126,-0.0073,-0.007,-0.0036,-0.003,0.0084,0.0083,0.0082,-0.0008,0,0,0,0,0,0,-0.047,-0.0468,-0.0475,-0.043,-0.042,-0.041,-0.0364,-0.035,-0.0329,-0.0322,-0.0225,-0.0206,-0.0143,-0.0084,-0.0067,-0.006,-0.0025,0.0085,0.0083,0.0082,-0.0004,-0.0012,-0.0018,0,0,0,0,0,-0.0472,-0.0493,-0.0476,-0.0472,-0.0433,-0.0411,-0.0402,-0.0353,-0.033,-0.0328,-0.0266,-0.0209,-0.0079,-0.0079,-0.0059,-0.0051,0.0085,0.0084,0.0082,-0.0001,-0.001,-0.0018,0,0,0,0,0,0,-0.0513,-0.0486,-0.0466,-0.0478,-0.0449,-0.0398,-0.0393,-0.0362,-0.0314,-0.0304,-0.0217,-0.0194,-0.0149,-0.0094,-0.0096,-0.0022,0.0012,0.0015,-0.0058,-0.0066,-0.0073,-0.0086,-0.0019,0,0,0,0,0,-0.0528,-0.0534,-0.0498,-0.0506,-0.0497,-0.0447,-0.0431,-0.0402,-0.0355,-0.0332,-0.0266,-0.0197,-0.0141,-0.01,-0.0047,-0.0003,0.0053,0.0015,0.0007,0.0001,0.0002,0.007,0.0069,0.0077,0.0077,0.0077,0,0,-0.0545,-0.0531,-0.0534,-0.0515,-0.0487,-0.0485,-0.0434,-0.0421,-0.0409,-0.0318,-0.0282,-0.0224,-0.014,-0.0095,-0.0068,-0.0044,0.0028,-0.0001,-0.0007,-0.0002,0.0068,0.0068,0.0067,0.0076,0.0076,0.0076,0,0,-0.0591,-0.0573,-0.0595,-0.0578,-0.055,-0.0518,-0.052,-0.0473,-0.0441,-0.0406,-0.034,-0.0283,-0.0198,-0.0134,-0.0091,-0.0105,-0.0022,-0.0089,-0.0119,-0.0055,-0.0055,-0.0054,0.0014,0.0021,-0.0082,-0.0082,-0.0082,0,-0.0612,-0.0636,-0.0597,-0.0612,-0.0603,-0.054,-0.0558,-0.0518,-0.0459,-0.0433,-0.0407,-0.0284,-0.0213,-0.0147,-0.015,-0.0118,-0.0071,-0.0093,-0.0064,-0.0062,-0.006,0.001,0.002,-0.0086,-0.0086,-0.0085,-0.0085,0,-0.0673,-0.0687,-0.0699,-0.0694,-0.0678,-0.0684,-0.063,-0.0605,-0.0559,-0.0512,-0.0447,-0.0354,-0.0277,-0.0247,-0.0196,-0.0144,-0.0113,-0.0091,-0.0044,-0.0066,0.0009,0.0021,-0.0093,-0.0091,-0.009,-0.0089,0,0,-0.0733,-0.0742,-0.0745,-0.076,-0.0724,-0.0722,-0.0698,-0.0658,-0.0642,-0.0565,-0.0532,-0.0427,-0.0371,-0.0319,-0.0245,-0.018,-0.0119,-0.0133,-0.0127,-0.0068,0.0026,0.0104,0.0125,-0.0094,-0.0093,-0.0092,0.0071,0,-0.0791,-0.0849,-0.0825,-0.0863,-0.0886,-0.082,-0.0804,-0.0754,-0.0693,-0.0642,-0.0529,-0.047,-0.0399,-0.0362,-0.0287,-0.0162,-0.0092,-0.0164,0.0042,0.0048,0.0118,0.0139,0.018,0.0333,0.0083,0.0085,0.0086,0,-0.0859,-0.0888,-0.0946,-0.0955,-0.0956,-0.0959,-0.0921,-0.0897,-0.0799,-0.0749,-0.066,-0.057,-0.0449,-0.0399,-0.0186,-0.0237,-0.0116,-0.0018,-0.0009,0.0105,0.0148,0.0316,0.0364,0.0576,0.0105,0.0104,0.0102,0,-0.0933,-0.097,-0.1023,-0.1026,-0.102,-0.1023,-0.1006,-0.0932,-0.0913,-0.0812,-0.0779,-0.0629,-0.0547,-0.0382,-0.0158,-0.0177,0.0076,0.0078,0.0264,0.0271,0.037,0.0383,0.0649,0.0219,0.0218,0.0218,0.0218,0,-0.1011,-0.105,-0.1065,-0.1095,-0.1145,-0.1102,-0.1122,-0.1079,-0.1013,-0.0989,-0.0841,-0.0772,-0.0541,-0.036,-0.0174,0.0101,0.0074,0.0273,0.0324,0.034,0.0348,0.0589,0.0661,0.0224,0.0223,0.0222,0.0221,0,-0.1087,-0.1097,-0.1162,-0.118,-0.1188,-0.1221,-0.1216,-0.1221,-0.1141,-0.1102,-0.1072,-0.0872,-0.0623,-0.0368,-0.0078,0.009,0.0474,0.0433,0.0442,0.0492,0.0842,0.0905,0.1214,0.1326,0.0653,0.0656,0.0659,0,-0.1133,-0.1176,-0.1236,-0.128,-0.1294,-0.133,-0.1351,-0.1297,-0.1291,-0.115,-0.1132,-0.0889,-0.0691,-0.0218,0.0121,0.0479,0.0625,0.0715,0.069,0.0892,0.1,0.104,0.1113,0.0786,0.0789,0.0792,0.0794,0,-0.1213,-0.1233,-0.1284,-0.1382,-0.143,-0.1478,-0.1495,-0.1511,-0.1427,-0.1356,-0.12,-0.1025,-0.0549,-0.011,0.0363,0.0579,0.0873,0.0781,0.0995,0.1139,0.1197,0.1317,0.0647,0.0818,0.0816,0.0814,0.0813,0.0812,-0.126,-0.132,-0.139,-0.1476,-0.154,-0.16,-0.163,-0.1615,-0.1582,-0.1445,-0.1263,-0.0957,-0.0319,0.0367,0.0625,0.1169,0.1103,0.1317,0.1381,0.1407,0.1513,0.0901,0.1122,0.1122,0.1121,0.1121,0.112,0,-0.1313,-0.1381,-0.1477,-0.1577,-0.1657,-0.1664,-0.1703,-0.1691,-0.164,-0.1458,-0.1258,-0.0566,0.0083,0.0675,0.144,0.1742,0.179,0.1893,0.196,0.2007,0.1486,0.149,0.1796,0.1796,0.1795,0.1795,0.1795,0.1795,-0.1343,-0.1445,-0.1499,-0.1645,-0.1712,-0.1777,-0.1792,-0.1742,-0.1616,-0.1276,-0.0904,-0.0604,0.0272,0.1514,0.2232,0.2302,0.253,0.2524,0.2646,0.2285,0.2235,0.2188,0.2213,0.2665,0.2666,0.3142,0.3146,0.315]}],[{"header":{"parameterUnit":"m.s-1","parameterCategory":2,"la1":30.2991,"la2":30.254,"lo1":-89.0895,"lo2":-89.0444,"dy":0.0017,"dx":0.0017,"nx":28,"ny":28,"refTime":"2025-04-15T09:00:00:Z","depth":"2","parameterNumber":2,"parameterNumberName":"U-component_of_CURRENTS"},"data":[0,0,0,0,0,0,0,0,0,0,0,0,0,0,0,0,0,0,0,0,0,0,0,0,0,0,0,0,0,0,0,0,0,0,0,0,0,0,0,0,0,0,0,0,0,0,0,0,0,0,0,0,0,0,0,0,0,0,-0.3107,-0.3108,0,-0.3183,-0.3184,-0.3185,-0.3179,-0.3178,-0.3177,-0.3177,-0.3241,-0.3244,-0.3246,0,0,0,0,0,0,0,0,0,0,0,0,0,-0.2973,-0.2976,-0.3107,-0.3109,-0.311,-0.3183,-0.3184,-0.3185,-0.3179,-0.3178,-0.3177,-0.3176,-0.324,-0.3243,-0.3246,0,0,0,0,0,0,0,0,0,0,0,0,0,-0.3036,-0.2976,-0.3107,-0.3118,-0.312,-0.3183,-0.3184,-0.3185,-0.318,-0.3178,-0.3177,-0.3176,-0.3239,-0.3243,-0.3247,-0.3297,0,0,-0.3258,-0.326,0,0,0,0,0,0,0,0,-0.3033,-0.3041,-0.3115,-0.3117,-0.312,-0.3173,-0.3161,-0.3223,-0.318,-0.3154,-0.3177,-0.3175,-0.322,-0.3225,-0.3239,-0.33,-0.3303,-0.3259,-0.3261,-0.3263,-0.3264,0,0,0,0,0,0,0,-0.3028,-0.3038,-0.3135,-0.3117,-0.3119,-0.3125,-0.3132,-0.3172,-0.3191,-0.3156,-0.3157,-0.317,-0.3221,-0.3235,-0.324,-0.3303,-0.3259,-0.3262,-0.3264,-0.3266,-0.3357,-0.3358,0,0,0,0,0,0,-0.3025,-0.3034,-0.3132,-0.3137,-0.3075,-0.3128,-0.3136,-0.3155,-0.3191,-0.3196,-0.3171,-0.3169,-0.3229,-0.3236,-0.3243,-0.3274,-0.3263,-0.3266,-0.3268,-0.3357,-0.3357,-0.3358,0,0,0,0,0,0,-0.3022,-0.3034,-0.3129,-0.3089,-0.3101,-0.3132,-0.3153,-0.3157,-0.3173,-0.3203,-0.3207,-0.3183,-0.3229,-0.3237,-0.327,-0.3278,-0.3268,-0.3271,-0.3357,-0.3357,-0.3357,-0.3357,0,0,0,0,0,0,-0.3018,-0.3032,-0.3044,-0.3089,-0.3104,-0.3165,-0.3155,-0.316,-0.3185,-0.3183,-0.3216,-0.322,-0.3228,-0.3264,-0.3274,-0.3283,-0.3274,-0.3357,-0.3357,-0.3357,-0.3356,-0.3357,-0.3357,0,0,0,0,0,-0.3013,-0.3035,-0.3044,-0.3056,-0.3119,-0.3167,-0.3175,-0.3189,-0.3187,-0.3198,-0.3211,-0.3219,-0.3272,-0.3268,-0.3279,-0.3289,-0.3357,-0.3357,-0.3357,-0.3356,-0.3357,-0.3357,0,0,0,0,0,0,-0.2982,-0.3039,-0.3049,-0.3086,-0.3123,-0.3166,-0.3181,-0.3197,-0.3219,-0.3216,-0.3234,-0.324,-0.3264,-0.3282,-0.3277,-0.3313,-0.3312,-0.3314,-0.3307,-0.3308,-0.3308,-0.3302,-0.3278,0,0,0,0,0,-0.2984,-0.3009,-0.3064,-0.309,-0.3112,-0.3149,-0.317,-0.3186,-0.3214,-0.3222,-0.3243,-0.3261,-0.3277,-0.3295,-0.3312,-0.3351,-0.3348,-0.336,-0.336,-0.336,-0.3361,-0.3348,-0.3347,-0.3359,-0.3359,-0.3359,0,0,-0.2976,-0.3011,-0.3025,-0.3084,-0.3112,-0.3153,-0.3157,-0.3194,-0.322,-0.3229,-0.3261,-0.3266,-0.3285,-0.331,-0.3323,-0.3327,-0.3357,-0.3361,-0.3361,-0.3362,-0.3348,-0.3347,-0.3346,-0.3359,-0.3359,-0.3359,0,0,-0.2981,-0.3009,-0.3037,-0.3074,-0.3127,-0.3154,-0.3168,-0.3218,-0.3228,-0.3271,-0.3265,-0.3272,-0.3323,-0.332,-0.333,-0.3348,-0.3353,-0.3358,-0.3366,-0.3353,-0.3352,-0.3351,-0.3353,-0.3352,-0.3365,-0.3365,-0.3365,0,-0.297,-0.3014,-0.305,-0.3093,-0.3121,-0.3157,-0.3194,-0.3222,-0.3271,-0.328,-0.3279,-0.3315,-0.3324,-0.334,-0.3336,-0.3348,-0.3349,-0.3364,-0.3353,-0.3352,-0.3351,-0.3353,-0.3352,-0.3365,-0.3365,-0.3365,-0.3365,0,-0.3001,-0.3039,-0.3058,-0.312,-0.3156,-0.3191,-0.324,-0.3267,-0.3285,-0.3307,-0.3326,-0.3332,-0.3348,-0.3349,-0.3352,-0.335,-0.3356,-0.3348,-0.3351,-0.3349,-0.3352,-0.3351,-0.3365,-0.3365,-0.3365,-0.3365,0,0,-0.2962,-0.3061,-0.3064,-0.3095,-0.3171,-0.3201,-0.3248,-0.3293,-0.3316,-0.3343,-0.3365,-0.3369,-0.3363,-0.3371,-0.3367,-0.3358,-0.3344,-0.3353,-0.3352,-0.3353,-0.333,-0.3254,-0.3245,-0.3336,-0.3335,-0.3335,-0.3338,0,-0.2969,-0.3039,-0.3091,-0.3146,-0.3184,-0.3235,-0.3275,-0.3318,-0.335,-0.338,-0.3377,-0.3396,-0.3377,-0.3381,-0.3366,-0.3356,-0.3341,-0.3345,-0.3333,-0.3333,-0.3263,-0.324,-0.2987,-0.2961,-0.3337,-0.3337,-0.3337,0,-0.2974,-0.302,-0.3077,-0.3156,-0.3177,-0.3214,-0.3272,-0.3317,-0.337,-0.3395,-0.3411,-0.3421,-0.3418,-0.3395,-0.337,-0.3377,-0.3349,-0.3334,-0.3334,-0.326,-0.3253,-0.3022,-0.2945,-0.3335,-0.3335,-0.3335,-0.3336,0,-0.2908,-0.3004,-0.3041,-0.3071,-0.317,-0.3194,-0.324,-0.3306,-0.3341,-0.3399,-0.3429,-0.3435,-0.3439,-0.341,-0.3381,-0.3378,-0.3352,-0.3344,-0.3248,-0.3244,-0.3024,-0.3,-0.3306,-0.3306,-0.3306,-0.3306,-0.3306,0,-0.2885,-0.2911,-0.3011,-0.3029,-0.3065,-0.3152,-0.3193,-0.3247,-0.3325,-0.3357,-0.3418,-0.3438,-0.3439,-0.3432,-0.3396,-0.3319,-0.336,-0.324,-0.323,-0.3018,-0.2994,-0.3315,-0.3316,-0.3306,-0.3306,-0.3306,-0.3306,0,-0.2797,-0.2872,-0.2913,-0.3008,-0.3034,-0.3053,-0.3155,-0.3183,-0.3282,-0.3329,-0.3348,-0.3434,-0.3427,-0.3423,-0.3388,-0.3326,-0.3272,-0.3231,-0.2994,-0.2953,-0.3174,-0.3176,-0.3125,-0.3122,-0.312,-0.3118,-0.3116,0,-0.2757,-0.277,-0.2862,-0.2876,-0.2913,-0.2967,-0.2998,-0.3125,-0.3165,-0.3309,-0.3314,-0.3368,-0.3356,-0.3308,-0.3214,-0.3134,-0.3213,-0.2858,-0.2789,-0.3156,-0.3151,-0.3156,-0.3161,-0.2505,-0.2499,-0.2493,-0.2489,0,-0.2655,-0.269,-0.2719,-0.2752,-0.2783,-0.2828,-0.2892,-0.2927,-0.3072,-0.3124,-0.3189,-0.3206,-0.3191,-0.2999,-0.2918,-0.2833,-0.2853,-0.2746,-0.3166,-0.2598,-0.2573,-0.2569,-0.2593,-0.2441,-0.2446,-0.2449,-0.2452,-0.2454,-0.2555,-0.2547,-0.2584,-0.2597,-0.2633,-0.2652,-0.2636,-0.2727,-0.2768,-0.2807,-0.2953,-0.2891,-0.2871,-0.262,-0.2493,-0.2391,-0.2583,-0.2443,-0.2458,-0.248,-0.2415,-0.2387,-0.221,-0.2213,-0.2216,-0.2218,-0.2221,0,-0.2412,-0.2417,-0.2424,-0.2435,-0.2403,-0.2482,-0.2522,-0.2474,-0.2454,-0.2528,-0.2544,-0.2298,-0.2182,-0.2179,-0.1954,-0.1912,-0.1876,-0.182,-0.1766,-0.1815,-0.1858,-0.176,-0.1382,-0.138,-0.1377,-0.1375,0,0,-0.2338,-0.2285,-0.2288,-0.2186,-0.219,-0.2094,-0.2076,-0.2034,-0.2038,-0.1959,-0.1923,-0.2076,-0.2124,-0.1756,-0.1664,-0.1494,-0.1636,-0.1413,-0.2085,-0.2071,-0.2111,-0.2215,-0.2119,0,0,0,0,0]},{"header":{"parameterUnit":"m.s-1","parameterCategory":2,"la1":30.2991,"la2":30.254,"lo1":-89.0895,"lo2":-89.0444,"dy":0.0017,"dx":0.0017,"nx":28,"ny":28,"refTime":"2025-04-15T09:00:00:Z","depth":"2","parameterNumber":3,"parameterNumberName":"V-component_of_CURRENTS"},"data":[0,0,0,0,0,0,0,0,0,0,0,0,0,0,0,0,0,0,0,0,0,0,0,0,0,0,0,0,0,0,0,0,0,0,0,0,0,0,0,0,0,0,0,0,0,0,0,0,0,0,0,0,0,0,0,0,0,0,-0.0393,-0.0392,0,-0.0308,-0.0306,-0.0305,-0.0228,-0.0227,-0.0226,-0.0226,-0.005,-0.0046,-0.0042,0,0,0,0,0,0,0,0,0,0,0,0,0,-0.042,-0.042,-0.0393,-0.0392,-0.0391,-0.0308,-0.0306,-0.0305,-0.0228,-0.0227,-0.0226,-0.0225,-0.0051,-0.0047,-0.0042,0,0,0,0,0,0,0,0,0,0,0,0,0,-0.0377,-0.042,-0.0393,-0.0344,-0.0339,-0.0308,-0.0306,-0.0305,-0.0228,-0.0227,-0.0226,-0.0225,-0.0053,-0.0047,-0.0041,-0.0028,0,0,-0.0023,-0.002,0,0,0,0,0,0,0,0,-0.038,-0.0376,-0.0352,-0.0347,-0.0341,-0.0279,-0.0251,-0.0208,-0.0229,-0.0268,-0.0226,-0.0224,-0.012,-0.0108,-0.0094,-0.0019,-0.0012,-0.0022,-0.0019,-0.0016,-0.0015,0,0,0,0,0,0,0,-0.0383,-0.0379,-0.0357,-0.0351,-0.0345,-0.0302,-0.0296,-0.0243,-0.0199,-0.0265,-0.0259,-0.0253,-0.0116,-0.01,-0.0089,-0.0009,-0.0023,-0.0017,-0.0014,-0.0011,0.0095,0.0094,0,0,0,0,0,0,-0.0402,-0.0382,-0.036,-0.0355,-0.036,-0.0303,-0.0295,-0.0299,-0.0201,-0.0186,-0.0254,-0.025,-0.0111,-0.0096,-0.0082,-0.0047,-0.0016,-0.0011,-0.0007,0.0095,0.0094,0.0094,0,0,0,0,0,0,-0.0403,-0.0401,-0.0363,-0.0367,-0.036,-0.0305,-0.0308,-0.0298,-0.0279,-0.0194,-0.0177,-0.0247,-0.0109,-0.0091,-0.0044,-0.004,-0.0008,-0.0003,0.0096,0.0095,0.0094,0.0015,0,0,0,0,0,0,-0.0404,-0.0402,-0.041,-0.0369,-0.036,-0.0354,-0.0309,-0.0297,-0.0278,-0.0271,-0.0182,-0.0165,-0.0107,-0.0054,-0.0038,-0.0031,0.0002,0.0097,0.0096,0.0094,0.0018,0.0011,0.0005,0,0,0,0,0,-0.0406,-0.0428,-0.0411,-0.0408,-0.0373,-0.0355,-0.0347,-0.0301,-0.0279,-0.0279,-0.0221,-0.0168,-0.0051,-0.005,-0.0031,-0.0023,0.0098,0.0096,0.0094,0.0021,0.0012,0.0005,0,0,0,0,0,0,-0.0445,-0.0421,-0.0402,-0.0415,-0.0389,-0.0343,-0.0339,-0.0311,-0.0267,-0.0258,-0.0176,-0.0156,-0.0116,-0.0065,-0.0066,0.0001,0.0032,0.0034,-0.003,-0.0038,-0.0044,-0.0052,0.0007,0,0,0,0,0,-0.0459,-0.0466,-0.0433,-0.0443,-0.0435,-0.0389,-0.0375,-0.0348,-0.0305,-0.0285,-0.0224,-0.0161,-0.0111,-0.0072,-0.0025,0.0016,0.0071,0.0031,0.0025,0.0019,0.0023,0.0095,0.0096,0.0088,0.0088,0.0088,0,0,-0.0476,-0.0464,-0.0467,-0.0451,-0.0426,-0.0425,-0.0377,-0.0367,-0.0356,-0.0272,-0.0239,-0.0187,-0.011,-0.007,-0.0046,-0.0022,0.0048,0.0017,0.0011,0.0019,0.0094,0.0095,0.0096,0.0087,0.0087,0.0087,0,0,-0.0521,-0.0505,-0.0527,-0.0512,-0.0488,-0.0457,-0.046,-0.0418,-0.0388,-0.0358,-0.0296,-0.0242,-0.0168,-0.0105,-0.0065,-0.008,-0.0,-0.0069,-0.0091,-0.0022,-0.002,-0.0018,0.0045,0.0054,-0.006,-0.006,-0.006,0,-0.0543,-0.0565,-0.053,-0.0545,-0.0536,-0.0479,-0.0495,-0.046,-0.0406,-0.0379,-0.0359,-0.0245,-0.018,-0.0113,-0.0118,-0.0091,-0.0045,-0.0066,-0.003,-0.0026,-0.0022,0.0042,0.0053,-0.0064,-0.0064,-0.0063,-0.0063,0,-0.0601,-0.0615,-0.0627,-0.0623,-0.0609,-0.0615,-0.0565,-0.0541,-0.0499,-0.0453,-0.0391,-0.0307,-0.0232,-0.0206,-0.0162,-0.0105,-0.0079,-0.0056,-0.0008,-0.0026,0.0043,0.0055,-0.007,-0.0069,-0.0067,-0.0066,0,0,-0.0661,-0.0669,-0.0672,-0.0684,-0.0651,-0.0649,-0.0626,-0.0586,-0.0566,-0.0497,-0.0459,-0.0365,-0.0311,-0.0263,-0.0195,-0.0127,-0.0063,-0.0086,-0.008,-0.0022,0.0087,0.0142,0.0161,-0.0035,-0.0033,-0.0032,0.0122,0,-0.0716,-0.0771,-0.0748,-0.0782,-0.0803,-0.0739,-0.0722,-0.0672,-0.0612,-0.056,-0.0451,-0.0395,-0.0333,-0.0299,-0.0222,-0.0105,-0.0033,-0.0106,0.0096,0.0102,0.0154,0.0177,0.0127,0.0264,0.0135,0.0137,0.0138,0,-0.0782,-0.0809,-0.0862,-0.0863,-0.0864,-0.0867,-0.0823,-0.0799,-0.0699,-0.0651,-0.0562,-0.0477,-0.0359,-0.0316,-0.0109,-0.0161,-0.0046,0.0047,0.0056,0.0147,0.0181,0.0263,0.0292,0.016,0.0158,0.0157,0.0155,0,-0.0852,-0.0885,-0.0932,-0.0934,-0.0924,-0.0925,-0.0907,-0.083,-0.0808,-0.0705,-0.0671,-0.0521,-0.0446,-0.0283,-0.008,-0.0096,0.0148,0.0153,0.0314,0.0319,0.034,0.0344,0.0297,0.0297,0.0297,0.0296,0.0296,0,-0.0925,-0.096,-0.0973,-0.1,-0.1043,-0.1,-0.1012,-0.0967,-0.0898,-0.0872,-0.0726,-0.0662,-0.0436,-0.0266,-0.009,0.0162,0.0149,0.0324,0.037,0.0309,0.0308,0.0266,0.0261,0.0302,0.0301,0.03,0.0299,0,-0.0999,-0.1007,-0.1065,-0.1077,-0.1085,-0.1114,-0.1103,-0.1103,-0.1022,-0.0982,-0.0952,-0.076,-0.0528,-0.0285,-0.0005,0.0151,0.0382,0.0472,0.0386,0.042,0.0505,0.0493,0.0662,0.0666,0.0669,0.0671,0.0673,0,-0.1043,-0.1083,-0.1136,-0.1177,-0.119,-0.122,-0.1238,-0.118,-0.117,-0.1034,-0.1016,-0.079,-0.0609,-0.0164,0.0145,0.048,0.0473,0.0624,0.0594,0.0519,0.0547,0.053,0.0515,0.0585,0.0586,0.0587,0.0588,0,-0.112,-0.1139,-0.1185,-0.1278,-0.1322,-0.1363,-0.1376,-0.1389,-0.1303,-0.1235,-0.1093,-0.0934,-0.0501,-0.0134,0.0303,0.0491,0.0567,0.0655,0.0619,0.0497,0.0458,0.0481,0.0466,0.0596,0.0595,0.0594,0.0594,0.0594,-0.1166,-0.1222,-0.1288,-0.137,-0.1428,-0.1483,-0.151,-0.1491,-0.1459,-0.1327,-0.1167,-0.089,-0.0529,0.0093,0.0406,0.0695,0.0686,0.075,0.0742,0.0734,0.0696,0.0663,0.0832,0.0833,0.0833,0.0834,0.0834,0,-0.1218,-0.1283,-0.1373,-0.1466,-0.1542,-0.1548,-0.1582,-0.1563,-0.1515,-0.1348,-0.1168,-0.0754,-0.0322,0.0062,0.0525,0.0803,0.0766,0.0843,0.0732,0.0722,0.0714,0.067,0.0803,0.0803,0.0804,0.0805,0,0,-0.1248,-0.1344,-0.1395,-0.1533,-0.1598,-0.1659,-0.1674,-0.1612,-0.149,-0.1307,-0.1096,-0.0799,-0.0322,-0.0004,0.0345,0.0587,0.0581,0.061,0.0605,0.0423,0.0412,0.0634,0.0553,0,0,0,0,0]}],[{"header":{"parameterUnit":"m.s-1","parameterCategory":2,"la1":30.2991,"la2":30.254,"lo1":-89.0895,"lo2":-89.0444,"dy":0.0017,"dx":0.0017,"nx":28,"ny":28,"refTime":"2025-04-15T09:00:00:Z","depth":"4","parameterNumber":2,"parameterNumberName":"U-component_of_CURRENTS"},"data":[0,0,0,0,0,0,0,0,0,0,0,0,0,0,0,0,0,0,0,0,0,0,0,0,0,0,0,0,0,0,0,0,0,0,0,0,0,0,0,0,0,0,0,0,0,0,0,0,0,0,0,0,0,0,0,0,0,0,-0.216,-0.2162,0,-0.2267,-0.2268,-0.2269,-0.2336,-0.2336,-0.2337,-0.2337,-0.248,-0.2483,-0.2486,0,0,0,0,0,0,0,0,0,0,0,0,0,-0.202,-0.2022,-0.216,-0.2162,-0.2163,-0.2267,-0.2268,-0.2269,-0.2336,-0.2336,-0.2337,-0.2338,-0.2479,-0.2483,-0.2487,0,0,0,0,0,0,0,0,0,0,0,0,0,-0.2097,-0.2022,-0.216,-0.221,-0.2216,-0.2267,-0.2268,-0.227,-0.2336,-0.2336,-0.2337,-0.2338,-0.2478,-0.2482,-0.2487,-0.2502,0,0,-0.2502,-0.2505,0,0,0,0,0,0,0,0,-0.2093,-0.2102,-0.2201,-0.2207,-0.2213,-0.2291,-0.2271,-0.235,-0.2335,-0.2288,-0.2337,-0.2338,-0.2421,-0.243,-0.2445,-0.2509,-0.2515,-0.2503,-0.2506,-0.2508,-0.2509,0,0,0,0,0,0,0,-0.2087,-0.2098,-0.2201,-0.2203,-0.221,-0.2229,-0.2241,-0.2286,-0.2348,-0.2292,-0.2298,-0.2312,-0.2424,-0.244,-0.2449,-0.2517,-0.2503,-0.2507,-0.251,-0.2512,-0.2659,-0.266,0,0,0,0,0,0,-0.2077,-0.2093,-0.2197,-0.2204,-0.2156,-0.2231,-0.2244,-0.2263,-0.2347,-0.236,-0.2312,-0.2315,-0.2432,-0.2444,-0.2455,-0.2547,-0.2508,-0.2513,-0.2515,-0.2658,-0.2659,-0.266,0,0,0,0,0,0,-0.2074,-0.2085,-0.2193,-0.2152,-0.2167,-0.2233,-0.2254,-0.2265,-0.2321,-0.2361,-0.2376,-0.236,-0.2433,-0.2448,-0.2519,-0.255,-0.2515,-0.2519,-0.2657,-0.2659,-0.266,-0.2686,0,0,0,0,0,0,-0.2069,-0.2084,-0.2112,-0.2151,-0.2169,-0.2243,-0.2254,-0.2267,-0.2327,-0.2334,-0.2407,-0.2419,-0.2434,-0.2511,-0.2524,-0.2556,-0.2523,-0.2656,-0.2658,-0.2659,-0.2684,-0.2688,-0.2692,0,0,0,0,0,-0.2064,-0.2092,-0.2113,-0.2127,-0.2201,-0.2245,-0.2256,-0.2303,-0.2329,-0.2356,-0.2404,-0.2419,-0.2531,-0.2516,-0.2531,-0.2565,-0.2655,-0.2657,-0.2659,-0.2682,-0.2687,-0.2692,0,0,0,0,0,0,-0.2049,-0.2103,-0.2127,-0.2172,-0.2216,-0.2257,-0.2294,-0.2326,-0.2385,-0.2405,-0.2439,-0.2454,-0.252,-0.2541,-0.2524,-0.261,-0.2593,-0.2598,-0.2605,-0.261,-0.2614,-0.2605,-0.2527,0,0,0,0,0,-0.2058,-0.2094,-0.2143,-0.2183,-0.2208,-0.2259,-0.2292,-0.2325,-0.2373,-0.2403,-0.2452,-0.2499,-0.2534,-0.2572,-0.2604,-0.2666,-0.2655,-0.2693,-0.2697,-0.27,-0.2701,-0.2697,-0.27,-0.2667,-0.2667,-0.2667,0,0,-0.2064,-0.2098,-0.2122,-0.2183,-0.2223,-0.2267,-0.2282,-0.2341,-0.2385,-0.2409,-0.2494,-0.2518,-0.255,-0.2605,-0.2638,-0.2636,-0.2706,-0.2703,-0.2706,-0.2705,-0.27,-0.2703,-0.2705,-0.2669,-0.2668,-0.2668,0,0,-0.208,-0.2126,-0.216,-0.22,-0.2267,-0.2297,-0.2322,-0.2387,-0.2427,-0.2501,-0.2516,-0.2557,-0.264,-0.265,-0.2668,-0.2716,-0.2719,-0.2739,-0.2767,-0.2763,-0.2766,-0.2768,-0.2762,-0.2763,-0.2751,-0.2751,-0.2751,0,-0.209,-0.2137,-0.2177,-0.222,-0.2261,-0.2314,-0.2361,-0.2405,-0.2486,-0.2518,-0.2536,-0.2626,-0.2652,-0.2696,-0.2709,-0.2725,-0.2726,-0.2747,-0.2767,-0.2769,-0.277,-0.2764,-0.2764,-0.2752,-0.2752,-0.2752,-0.2752,0,-0.2118,-0.2175,-0.2199,-0.2269,-0.2316,-0.2366,-0.2427,-0.2484,-0.2541,-0.2578,-0.2648,-0.2674,-0.2723,-0.2737,-0.2745,-0.2774,-0.2772,-0.2763,-0.2752,-0.2775,-0.2767,-0.2767,-0.2754,-0.2754,-0.2753,-0.2753,0,0,-0.2089,-0.22,-0.2212,-0.2259,-0.235,-0.2388,-0.2465,-0.2536,-0.2589,-0.2655,-0.2712,-0.2756,-0.277,-0.2789,-0.2798,-0.2801,-0.2808,-0.2798,-0.2797,-0.2786,-0.2808,-0.2631,-0.2615,-0.281,-0.281,-0.281,-0.2798,0,-0.2103,-0.2186,-0.2241,-0.2328,-0.2376,-0.245,-0.2515,-0.2587,-0.2651,-0.2717,-0.2743,-0.2798,-0.2791,-0.282,-0.2821,-0.2816,-0.2812,-0.2813,-0.2792,-0.2791,-0.2626,-0.2609,-0.2811,-0.2798,-0.2798,-0.2798,-0.2798,0,-0.2103,-0.2163,-0.2251,-0.2364,-0.2393,-0.2457,-0.2566,-0.2629,-0.2718,-0.2768,-0.2818,-0.2846,-0.2872,-0.2855,-0.2851,-0.286,-0.2836,-0.282,-0.2819,-0.2643,-0.2614,-0.2771,-0.2799,-0.2799,-0.2799,-0.2799,-0.2799,0,-0.2042,-0.2165,-0.2238,-0.2278,-0.2411,-0.2473,-0.2545,-0.2648,-0.2702,-0.2799,-0.2843,-0.2883,-0.2907,-0.2891,-0.2863,-0.287,-0.284,-0.284,-0.2655,-0.2644,-0.2799,-0.2797,-0.2816,-0.2817,-0.2817,-0.2817,-0.2817,0,-0.2009,-0.2071,-0.2225,-0.2262,-0.2351,-0.2456,-0.255,-0.2627,-0.2731,-0.2772,-0.2861,-0.2879,-0.2917,-0.2908,-0.2876,-0.2752,-0.2846,-0.2643,-0.2617,-0.2811,-0.2811,-0.2799,-0.2797,-0.2816,-0.2816,-0.2816,-0.2816,0,-0.1918,-0.2024,-0.2114,-0.2272,-0.2325,-0.2388,-0.2542,-0.2591,-0.2712,-0.2768,-0.2799,-0.2883,-0.286,-0.2868,-0.2837,-0.2741,-0.2662,-0.2596,-0.2804,-0.2794,-0.2473,-0.2473,-0.2386,-0.2379,-0.2374,-0.2369,-0.2365,0,-0.1872,-0.1914,-0.2095,-0.2147,-0.2225,-0.234,-0.2403,-0.2556,-0.2596,-0.2734,-0.2728,-0.2775,-0.2799,-0.2608,-0.2646,-0.2559,-0.2524,-0.2477,-0.2463,-0.2439,-0.2424,-0.2433,-0.2441,-0.2356,-0.2355,-0.2353,-0.2352,0,-0.1773,-0.186,-0.1933,-0.2041,-0.213,-0.2212,-0.2315,-0.2329,-0.2475,-0.2615,-0.2573,-0.2546,-0.2515,-0.2473,-0.2417,-0.236,-0.2504,-0.2418,-0.2429,-0.2416,-0.2402,-0.2395,-0.2409,-0.2333,-0.2335,-0.2337,-0.2338,0,-0.1696,-0.1724,-0.183,-0.1902,-0.2005,-0.2033,-0.212,-0.2155,-0.2215,-0.2367,-0.2345,-0.2396,-0.2483,-0.2369,-0.232,-0.2243,-0.2209,-0.2133,-0.2159,-0.2181,-0.2115,-0.2068,-0.1854,0,0,0,0,0,-0.1603,-0.1615,-0.1676,-0.1749,-0.1839,-0.1893,-0.2026,-0.2113,-0.2259,-0.2163,-0.2246,-0.2204,-0.2133,-0.2169,-0.204,-0.2228,-0.2221,-0.2071,-0.215,-0.2225,-0.2248,-0.2187,0,0,0,0,0,0,-0.1543,-0.1596,-0.1619,-0.1589,-0.1601,-0.1679,-0.1753,-0.1865,-0.1825,-0.1978,-0.1944,-0.2061,-0.202,-0.2156,-0.1988,-0.1996,-0.1999,-0.2117,-0.211,-0.2213,-0.2233,-0.2251,-0.2197,0,0,0,0,0]},{"header":{"parameterUnit":"m.s-1","parameterCategory":2,"la1":30.2991,"la2":30.254,"lo1":-89.0895,"lo2":-89.0444,"dy":0.0017,"dx":0.0017,"nx":28,"ny":28,"refTime":"2025-04-15T09:00:00:Z","depth":"4","parameterNumber":3,"parameterNumberName":"V-component_of_CURRENTS"},"data":[0,0,0,0,0,0,0,0,0,0,0,0,0,0,0,0,0,0,0,0,0,0,0,0,0,0,0,0,0,0,0,0,0,0,0,0,0,0,0,0,0,0,0,0,0,0,0,0,0,0,0,0,0,0,0,0,0,0,-0.0279,-0.0279,0,-0.023,-0.0229,-0.0228,-0.0178,-0.0177,-0.0176,-0.0176,-0.0051,-0.0048,-0.0046,0,0,0,0,0,0,0,0,0,0,0,0,0,-0.0283,-0.0283,-0.0279,-0.0279,-0.0278,-0.023,-0.0229,-0.0228,-0.0178,-0.0177,-0.0176,-0.0176,-0.0052,-0.0049,-0.0045,0,0,0,0,0,0,0,0,0,0,0,0,0,-0.0261,-0.0283,-0.0279,-0.0248,-0.0245,-0.023,-0.0229,-0.0228,-0.0178,-0.0177,-0.0176,-0.0175,-0.0053,-0.0049,-0.0045,-0.0036,0,0,-0.0032,-0.003,0,0,0,0,0,0,0,0,-0.0262,-0.0261,-0.0253,-0.025,-0.0247,-0.021,-0.0185,-0.0161,-0.0178,-0.0202,-0.0176,-0.0175,-0.0099,-0.0091,-0.0083,-0.0031,-0.0025,-0.0032,-0.0029,-0.0028,-0.0026,0,0,0,0,0,0,0,-0.0264,-0.0262,-0.0258,-0.0253,-0.0249,-0.0221,-0.0217,-0.018,-0.0153,-0.02,-0.0196,-0.0193,-0.0096,-0.0087,-0.0079,-0.0023,-0.0032,-0.0028,-0.0026,-0.0024,0.0041,0.004,0,0,0,0,0,0,-0.0276,-0.0264,-0.026,-0.0257,-0.0254,-0.0222,-0.0217,-0.0222,-0.0155,-0.0145,-0.0194,-0.0191,-0.0094,-0.0084,-0.0074,-0.0054,-0.0028,-0.0024,-0.0021,0.0042,0.0041,0.004,0,0,0,0,0,0,-0.0277,-0.0277,-0.0262,-0.026,-0.0256,-0.0223,-0.0228,-0.0221,-0.0212,-0.0152,-0.014,-0.0193,-0.0093,-0.008,-0.0052,-0.0049,-0.0022,-0.0018,0.0043,0.0041,0.004,-0.0016,0,0,0,0,0,0,-0.0277,-0.0277,-0.0286,-0.0261,-0.0257,-0.0262,-0.0229,-0.0221,-0.0213,-0.0208,-0.0147,-0.0134,-0.0092,-0.0059,-0.0048,-0.0042,-0.0015,0.0044,0.0042,0.0041,-0.0013,-0.0019,-0.0024,0,0,0,0,0,-0.0278,-0.0297,-0.0287,-0.0286,-0.027,-0.0263,-0.0259,-0.023,-0.0214,-0.0218,-0.0178,-0.0136,-0.006,-0.0056,-0.0043,-0.0036,0.0044,0.0043,0.0041,-0.0011,-0.0018,-0.0024,0,0,0,0,0,0,-0.0305,-0.0293,-0.0281,-0.0297,-0.0284,-0.0255,-0.0258,-0.0238,-0.0212,-0.0206,-0.0146,-0.0132,-0.0109,-0.0071,-0.0068,-0.0025,-0.0001,-0.0,-0.0045,-0.0051,-0.0056,-0.0055,-0.0011,0,0,0,0,0,-0.0316,-0.0327,-0.0308,-0.0321,-0.0318,-0.0289,-0.0283,-0.0266,-0.0239,-0.0227,-0.0185,-0.0142,-0.0107,-0.0079,-0.0048,-0.002,0.003,-0.0009,-0.0014,-0.0019,-0.0011,0.0064,0.0067,0.0034,0.0034,0.0034,0,0,-0.033,-0.0326,-0.0331,-0.0327,-0.0314,-0.0318,-0.0283,-0.0283,-0.0278,-0.0217,-0.02,-0.0164,-0.0109,-0.0083,-0.0067,-0.0046,0.0011,-0.0021,-0.0025,-0.0015,0.0062,0.0066,0.0069,0.0033,0.0033,0.0033,0,0,-0.0368,-0.0361,-0.0382,-0.0376,-0.0366,-0.0347,-0.0351,-0.0327,-0.0308,-0.0294,-0.0247,-0.0208,-0.0163,-0.0111,-0.008,-0.0096,-0.0029,-0.0094,-0.0102,-0.0031,-0.0027,-0.0022,0.0028,0.0037,-0.0084,-0.0084,-0.0084,0,-0.0385,-0.0407,-0.0387,-0.0403,-0.0401,-0.0364,-0.0381,-0.0359,-0.0328,-0.0305,-0.0298,-0.0215,-0.017,-0.0111,-0.0119,-0.0104,-0.0063,-0.0081,-0.0035,-0.003,-0.0025,0.0026,0.0037,-0.0087,-0.0087,-0.0086,-0.0086,0,-0.0433,-0.045,-0.0462,-0.0467,-0.0462,-0.0472,-0.044,-0.0427,-0.0401,-0.0367,-0.0319,-0.0259,-0.0202,-0.0185,-0.0155,-0.0096,-0.0082,-0.006,-0.0016,-0.0024,0.0029,0.0041,-0.0091,-0.009,-0.0089,-0.0089,0,0,-0.0476,-0.0494,-0.0499,-0.051,-0.0496,-0.0499,-0.0486,-0.0457,-0.0439,-0.0395,-0.0359,-0.0294,-0.0251,-0.0214,-0.0163,-0.0096,-0.0032,-0.0067,-0.0062,-0.0011,0.0113,0.0086,0.0098,-0.0001,0.0002,0.0003,0.0129,0,-0.0519,-0.0569,-0.0557,-0.0591,-0.0609,-0.0567,-0.0558,-0.0521,-0.0478,-0.0435,-0.0347,-0.0304,-0.0263,-0.0237,-0.0163,-0.0067,0.0001,-0.0069,0.011,0.0115,0.0098,0.0112,0.001,0.0139,0.0142,0.0144,0.0146,0,-0.0567,-0.0593,-0.0643,-0.0649,-0.0651,-0.0663,-0.063,-0.0614,-0.0533,-0.0495,-0.0419,-0.0353,-0.025,-0.0222,-0.004,-0.0089,0.0005,0.0084,0.0091,0.0099,0.0113,0.0155,0.0169,0.0168,0.0166,0.0164,0.0163,0,-0.0611,-0.0648,-0.069,-0.0696,-0.0698,-0.0705,-0.0698,-0.0638,-0.0621,-0.0532,-0.0505,-0.0371,-0.0313,-0.0167,-0.0014,-0.0022,0.0183,0.0198,0.0267,0.0266,0.0279,0.0273,0.0333,0.0333,0.0333,0.0332,0.0332,0,-0.0655,-0.0689,-0.0722,-0.0747,-0.0788,-0.0763,-0.0777,-0.0743,-0.0688,-0.0664,-0.0545,-0.0495,-0.0296,-0.0159,-0.0014,0.0159,0.019,0.0273,0.0304,0.0247,0.0237,0.0287,0.028,0.0337,0.0336,0.0335,0.0334,0,-0.0694,-0.0717,-0.0772,-0.0802,-0.0817,-0.0847,-0.0857,-0.0855,-0.0795,-0.0758,-0.0734,-0.058,-0.0401,-0.02,0.004,0.0143,0.0322,0.0377,0.0289,0.0312,0.0357,0.0345,0.0473,0.0473,0.0473,0.0473,0.0473,0,-0.0716,-0.0753,-0.0827,-0.0872,-0.0896,-0.0936,-0.096,-0.0921,-0.0911,-0.081,-0.0792,-0.0623,-0.05,-0.0177,0.0026,0.0309,0.0343,0.0428,0.0407,0.0358,0.0376,0.0363,0.0352,0.0474,0.0474,0.0474,0.0474,0,-0.0754,-0.079,-0.0836,-0.0938,-0.0993,-0.1037,-0.1062,-0.1062,-0.0998,-0.0953,-0.0821,-0.0641,-0.0441,-0.0189,0.0029,0.0229,0.0371,0.0431,0.0432,0.0413,0.0361,0.0375,0.0364,0.0475,0.0475,0.0475,0.0474,0,-0.0778,-0.0826,-0.0902,-0.0981,-0.1062,-0.1108,-0.1115,-0.1083,-0.1057,-0.0932,-0.0897,-0.0661,-0.0522,-0.0231,-0.003,0.0165,0.0212,0.0265,0.0276,0.0277,0.0177,0.0079,0.0143,0,0,0,0,0,-0.079,-0.085,-0.0937,-0.1022,-0.1103,-0.1143,-0.1166,-0.1152,-0.1096,-0.1012,-0.0945,-0.075,-0.0434,-0.0295,-0.0103,-0.0039,0.023,0.0189,0.0293,0.0479,0.0478,0.0391,0,0,0,0,0,0,-0.0802,-0.0889,-0.0935,-0.1036,-0.1099,-0.1173,-0.1189,-0.1155,-0.1087,-0.101,-0.0838,-0.0726,-0.0418,-0.0546,-0.0107,-0.0048,0.0039,0.0346,0.0349,0.048,0.0479,0.0478,0.0388,0,0,0,0,0]}]]